Home   Weather   Marigot   Past weeks

Past Weather in Marigot, Saint Martin — Yesterday and Last 2 Weeks

Now
77 °F

Passing clouds.


Feels Like: 79 °F
Forecast: 77 / 82 °F
Wind: 8 mph from East

Location: Juliana Airport - Saint Maarten

Current Time: Jan 17, 2018 at 7:22:19 am

Latest Report: Jan 17, 2018 at 7:00 am


Visibility: N/A

Pressure: 30.04 "Hg

Humidity: 79%

Dew Point: 70 °F

Location of MarigotLocation

Past Weather in Marigot — Graph

°F

Marigot Temperature Yesterday

Maximum temperature yesterday: 84 °F (at 11:00 am)
Minimum temperature yesterday: 77 °F (at 7:00 am)
Average temperature yesterday: 81 °F

High & Low Weather Summary for the Past Weeks

 TemperatureHumidityPressure
High84 °F (Jan 2, 12:00 pm)94% (Jan 8, 6:00 am)30.12 "Hg (Jan 8, 6:00 am)
Low72 °F (Jan 8, 6:00 am)55% (Jan 2, 12:00 pm)29.92 "Hg (Jan 3, 3:00 pm)
Average80 °F73%30.03 "Hg
* Reported Jan 2 6:00 am — Jan 17 6:00 am, Marigot. Weather by CustomWeather, © 2018

Note: Actual official high and low records may vary slightly from our data, if they occured in-between our weather recording intervals... More about our weather records

Advertising

Marigot Weather History for the Previous 24 Hours

Scroll right to see more
 ConditionsComfort  
Time TempWeatherWind HumidityBarometerVisibility
6:00 am
Wed, Jan 17
77 °FPassing clouds.7 mph79%30.01 "HgN/A
9:00 pm
Tue, Jan 16
79 °FPassing clouds.12 mph74%30.04 "HgN/A
8:00 pm79 °FPassing clouds.12 mph74%30.04 "HgN/A
7:00 pm79 °FPassing clouds.10 mph74%30.01 "HgN/A
6:00 pm79 °FPassing clouds.10 mph74%29.98 "HgN/A
5:00 pm82 °FScattered clouds.10 mph70%29.98 "HgN/A
4:00 pm82 °FScattered clouds.13 mph70%29.98 "HgN/A
3:00 pm84 °FScattered clouds.13 mph66%29.98 "HgN/A
2:00 pm84 °FPartly sunny.13 mph66%30.01 "HgN/A
1:00 pm82 °FScattered clouds.12 mph66%30.01 "HgN/A
12:00 pm82 °FScattered clouds.13 mph70%30.04 "HgN/A
11:00 am84 °FScattered clouds.12 mph66%30.07 "HgN/A
10:00 am82 °FScattered clouds.12 mph70%30.07 "HgN/A
9:00 am81 °FPassing clouds.10 mph74%30.07 "HgN/A
8:00 am79 °FSprinkles. Scattered clouds.8 mph79%30.04 "HgN/A
7:00 am77 °FWarm.2 mph83%30.01 "HgN/A
Weather by CustomWeather, © 2018

See weather overview